Weather reports worldwide

Advertisment
Garmisch-Partenkirchen, Germany (10963): temperature & dewpoint: 29.06.2020 15:00:00 - 05.07.2020 15:00:00 (CEST)Garmisch-Partenkirchen, Germany (10963): temperature 5cm & temperature -5cm: 29.06.2020 15:00:00 - 05.07.2020 15:00:00 (CEST)Garmisch-Partenkirchen, Germany (10963): temperature -20cm & temperature -100cm: 29.06.2020 15:00:00 - 05.07.2020 15:00:00 (CEST)Garmisch-Partenkirchen, Germany (10963): wind speed & gusts: 29.06.2020 15:00:00 - 05.07.2020 15:00:00 (CEST)Garmisch-Partenkirchen, Germany (10963): wind direction: 29.06.2020 15:00:00 - 05.07.2020 15:00:00 (CEST)Garmisch-Partenkirchen, Germany (10963): reduced air pressure: 29.06.2020 15:00:00 - 05.07.2020 15:00:00 (CEST)Garmisch-Partenkirchen, Germany (10963): visibility: 29.06.2020 15:00:00 - 05.07.2020 15:00:00 (CEST)Garmisch-Partenkirchen, Germany (10963): sunshine duration: 29.06.2020 15:00:00 - 05.07.2020 15:00:00 (CEST)Garmisch-Partenkirchen, Germany (10963): precipitation: 29.06.2020 15:00:00 - 05.07.2020 15:00:00 (CEST)
Date & Time tt [°C] td [°C] tt 5cm [°C] tt -5cm [°C] tt -20cm [°C] tt -100cm [°C] ff [km/h] ff [kn] fx [km/h] fx [kn] dd ppp [hPa] vv [km] sd [min] rr [mm]
05.07.2020 15:00:00 - - - - - - - - - - - - - - -
05.07.2020 14:00:00 24,7 13,0 27,6 30,5 22,0 16,4 10 6 23 13 NNE 1015,0 72 5 0,0
05.07.2020 13:00:00 25,1 12,2 28,7 30,5 20,8 16,4 11 6 23 12 NE 1015,4 63 48 0,0
05.07.2020 12:00:00 24,4 11,8 29,0 28,0 19,6 16,4 12 7 22 12 NE 1016,0 75 60 0,0
05.07.2020 11:00:00 23,9 10,7 25,5 24,7 18,7 16,4 5 3 10 5 SE 1016,5 75 60 0,0
05.07.2020 10:00:00 21,1 11,0 23,1 21,4 18,0 16,4 3 2 9 5 SSW 1017,6 45 60 0,0
05.07.2020 09:00:00 19,6 11,7 19,3 18,2 17,8 16,4 4 2 7 4 S 1018,4 61 60 0,0
05.07.2020 08:00:00 16,7 12,5 13,3 15,2 18,0 16,4 3 2 7 4 S 1019,6 65 60 0,0
05.07.2020 07:00:00 11,9 10,9 10,2 14,7 18,4 16,4 2 1 8 5 SSW 1021,6 46 17 0,0
05.07.2020 06:00:00 9,9 9,6 9,5 14,9 18,8 16,4 3 2 8 4 WSW 1022,3 25 0 0,0
05.07.2020 05:00:00 10,4 10,1 9,5 15,4 19,3 16,4 3 2 11 6 SW 1022,1 32 0 0,0
05.07.2020 04:00:00 11,1 10,6 9,6 16,1 19,8 16,4 3 2 10 5 W 1021,9 49 0 0,0
05.07.2020 03:00:00 11,2 10,8 10,3 16,7 20,3 16,4 2 1 6 3 SW 1022,1 39 0 0,0
05.07.2020 02:00:00 11,5 11,2 10,8 17,5 20,9 16,5 3 2 6 4 SW 1022,1 35 0 0,0
05.07.2020 01:00:00 12,2 11,6 11,5 18,4 21,5 16,5 4 2 7 4 SW 1021,8 35 0 0,0
05.07.2020 00:00:00 13,1 12,4 12,4 19,4 22,1 16,5 4 2 7 4 SW 1021,0 37 0 0,0
04.07.2020 23:00:00 14,2 12,9 13,4 20,6 22,7 16,5 4 2 7 4 SW 1020,7 46 0 0,0
04.07.2020 22:00:00 15,2 13,4 14,3 22,1 23,3 16,5 2 1 7 4 W 1020,1 40 0 0,0
04.07.2020 21:00:00 18,2 13,6 16,6 23,9 23,7 16,5 3 2 10 5 NW 1018,1 65 0 0,0
04.07.2020 20:00:00 21,0 12,3 21,0 26,2 23,9 16,5 5 3 22 12 NNE 1016,8 75 49 0,0
04.07.2020 19:00:00 22,8 12,3 24,7 27,9 23,9 16,5 10 5 26 14 NE 1016,5 75 50 0,0
04.07.2020 18:00:00 23,4 12,8 26,4 29,2 23,6 16,5 12 6 28 15 NE 1016,1 75 53 0,0
04.07.2020 17:00:00 23,4 12,0 26,9 30,0 23,0 16,5 13 7 27 15 NNE 1015,8 75 60 0,0
04.07.2020 16:00:00 23,0 11,3 26,5 29,8 22,3 16,5 13 7 29 16 NE 1016,2 54 60 0,0
04.07.2020 15:00:00 22,7 11,6 26,2 29,8 21,4 16,5 12 6 28 15 NE 1016,7 75 60 0,0
04.07.2020 14:00:00 22,4 11,6 26,7 28,9 20,3 16,5 13 7 29 15 NE 1017,1 58 60 0,0
04.07.2020 13:00:00 22,1 12,0 26,6 27,4 19,2 16,5 14 8 29 16 NE 1017,9 72 60 0,0
04.07.2020 12:00:00 21,3 11,8 24,9 25,3 18,1 16,5 12 6 23 12 NE 1018,3 65 52 0,0
04.07.2020 11:00:00 21,3 11,5 23,4 23,2 17,1 16,5 5 3 10 6 ESE 1018,2 66 60 0,0
04.07.2020 10:00:00 19,7 11,7 20,1 19,5 16,5 16,6 3 2 8 4 E 1018,9 2,8 60 0,0
04.07.2020 09:00:00 16,0 12,1 15,7 16,3 16,3 16,6 3 2 9 5 S 1020,7 75 18 0,0
04.07.2020 08:00:00 13,0 10,5 12,0 14,4 16,4 16,6 5 3 10 5 SW 1021,8 52 12 0,0
04.07.2020 07:00:00 10,8 10,2 10,0 13,3 16,7 16,6 5 3 10 6 SSW 1022,5 47 17 0,0
04.07.2020 06:00:00 9,6 9,3 8,2 13,5 17,0 16,6 2 1 9 5 W 1022,4 38 0 0,0
04.07.2020 05:00:00 9,8 9,6 9,2 14,1 17,3 16,6 4 2 7 4 WSW 1022,3 16 0 0,0
04.07.2020 04:00:00 10,6 10,4 10,3 14,7 17,7 16,6 3 2 9 5 SW 1022,0 23 0 0,0
04.07.2020 03:00:00 11,0 10,7 10,2 15,3 18,0 16,6 1 1 8 4 NW 1021,8 22 0 0,0
04.07.2020 02:00:00 12,3 11,8 11,7 16,1 18,2 16,6 2 1 4 2 WSW 1021,3 38 0 0,0
04.07.2020 01:00:00 12,8 12,1 12,7 16,4 18,5 16,6 1 1 5 3 W 1021,5 55 0 0,0
04.07.2020 00:00:00 12,7 12,0 12,5 16,8 18,7 16,6 3 2 5 3 SW 1021,4 39 0 0,0
03.07.2020 23:00:00 13,1 12,0 12,9 17,2 19,0 16,6 3 1 7 4 W 1021,3 62 0 0,0
03.07.2020 22:00:00 13,7 12,0 13,2 17,9 19,3 16,6 3 2 6 4 WSW 1020,6 54 0 0,0
03.07.2020 21:00:00 14,6 13,0 14,3 18,7 19,4 16,6 2 1 7 4 WSW 1019,7 67 0 0,0
03.07.2020 20:00:00 16,0 13,3 15,8 19,4 19,5 16,6 2 1 7 4 W 1019,2 68 0 0,0
03.07.2020 19:00:00 16,3 13,2 16,5 19,7 19,5 16,6 3 2 9 5 SW 1018,8 75 0 0,0
03.07.2020 18:00:00 15,9 13,1 16,1 19,7 19,6 16,6 4 2 8 5 WSW 1019,2 65 0 0,0
03.07.2020 17:00:00 16,3 12,4 16,8 20,1 19,6 16,5 4 2 6 4 W 1019,0 64 0 0,0
03.07.2020 16:00:00 16,2 12,7 16,6 20,5 19,5 16,5 3 2 5 3 NW 1018,9 74 0 0,0
03.07.2020 15:00:00 16,9 11,2 17,0 21,6 19,2 16,5 2 1 6 4 WSW 1018,8 66 0 0,0
03.07.2020 14:00:00 16,5 11,7 16,5 20,9 18,9 16,5 3 2 10 5 SW 1019,2 65 0 0,0
03.07.2020 13:00:00 14,3 11,9 14,8 19,6 18,6 16,5 7 4 11 6 WSW 1020,2 60 0 0,0
03.07.2020 12:00:00 14,8 11,6 14,7 19,0 18,5 16,5 2 1 9 5 WNW 1019,8 75 0 0,0
03.07.2020 11:00:00 13,2 11,7 13,6 17,8 18,5 16,5 5 3 20 11 E 1020,0 45 0 0,1
03.07.2020 10:00:00 13,0 12,2 13,6 17,2 18,6 16,5 9 5 23 12 E 1019,8 13 0 2,1
03.07.2020 09:00:00 13,0 12,2 12,9 17,1 18,8 16,5 5 3 22 12 ENE 1019,4 3,8 0 1,3
03.07.2020 08:00:00 13,6 13,0 13,5 17,2 19,0 16,5 0 0 4 2 N 1018,5 11 0 0,9
03.07.2020 07:00:00 13,5 12,9 13,4 17,2 19,2 16,5 2 1 6 3 NNW 1018,0 39 0 0,0
03.07.2020 06:00:00 13,4 12,9 13,4 17,3 19,5 16,5 0 0 8 4 N 1017,7 32 0 0,0
03.07.2020 05:00:00 13,1 12,7 13,2 17,6 19,8 16,5 4 2 10 5 SSW 1017,5 21 0 0,0
03.07.2020 04:00:00 13,6 13,1 13,7 18,0 20,1 16,5 3 1 5 3 NE 1017,1 40 0 0,0
03.07.2020 03:00:00 13,9 13,4 13,9 18,3 20,4 16,5 3 1 12 6 S 1017,1 18 0 1,2
03.07.2020 02:00:00 14,1 13,2 14,0 18,8 20,7 16,4 7 4 22 12 E 1016,8 39 0 0,2
03.07.2020 01:00:00 15,2 14,8 15,1 19,3 21,0 16,4 5 3 9 5 E 1016,3 32 0 0,0
03.07.2020 00:00:00 15,1 14,2 15,0 19,7 21,4 16,4 3 1 6 3 SSW 1016,2 37 0 0,4
02.07.2020 23:00:00 16,0 15,0 16,0 20,1 21,8 16,4 2 1 8 5 N 1015,2 25 0 3,9
02.07.2020 22:00:00 16,4 15,8 16,4 20,9 22,2 16,4 3 2 7 4 W 1014,5 55 0 0,2
02.07.2020 21:00:00 16,4 15,8 16,3 21,7 22,6 16,4 3 2 13 7 SW 1014,2 26 0 0,0
02.07.2020 20:00:00 17,2 16,0 17,1 22,5 22,9 16,4 5 3 12 6 ENE 1013,5 29 0 0,8
02.07.2020 19:00:00 17,4 16,1 17,4 23,4 23,3 16,4 4 2 18 10 E 1012,8 18 0 1,5
02.07.2020 18:00:00 17,9 15,3 17,3 24,9 23,5 16,4 10 5 30 16 E 1012,3 55 0 0,3
02.07.2020 17:00:00 21,2 15,0 19,6 26,8 23,4 16,4 9 5 31 17 WSW 1010,2 16 16 0,0
02.07.2020 16:00:00 22,9 15,4 24,3 28,1 23,0 16,4 14 8 30 16 NE 1009,5 72 18 0,0
02.07.2020 15:00:00 23,9 14,3 24,7 29,6 22,2 16,4 12 7 29 16 NE 1009,4 65 46 0,0
02.07.2020 14:00:00 24,5 14,0 28,3 29,1 21,1 16,4 14 8 25 14 NE 1009,6 62 59 0,0
02.07.2020 13:00:00 24,1 14,1 27,2 26,2 20,2 16,4 9 5 17 9 ENE 1010,3 65 42 0,0
02.07.2020 12:00:00 21,7 14,5 21,8 23,4 19,6 16,4 4 2 9 5 S 1011,3 74 22 0,0
02.07.2020 11:00:00 19,9 16,4 20,0 21,1 19,2 16,3 5 3 8 5 S 1012,2 75 8 0,0
02.07.2020 10:00:00 17,1 14,9 17,0 19,0 19,2 16,3 4 2 6 3 E 1013,4 60 0 0,1
02.07.2020 09:00:00 15,9 15,2 15,8 18,2 19,2 16,3 3 1 5 3 N 1013,8 47 0 0,2
02.07.2020 08:00:00 15,5 14,6 15,5 17,9 19,4 16,3 3 2 8 5 ENE 1014,1 73 0 0,1
02.07.2020 07:00:00 14,7 14,5 14,6 17,6 19,6 16,3 5 3 8 5 SSW 1014,0 20 0 0,0
02.07.2020 06:00:00 14,7 14,4 14,4 17,7 19,8 16,3 2 1 7 4 WSW 1013,8 51 0 0,0
02.07.2020 05:00:00 14,6 14,4 14,3 17,9 20,1 16,3 2 1 6 4 WSW 1013,6 21 0 0,0
02.07.2020 04:00:00 15,0 14,6 14,6 18,1 20,4 16,3 3 2 8 5 ENE 1013,6 43 0 0,0
02.07.2020 03:00:00 14,5 14,2 14,1 18,3 20,7 16,3 4 2 14 8 S 1013,8 3,7 0 0,1
02.07.2020 02:00:00 14,7 14,2 14,6 18,4 21,2 16,3 8 4 17 9 SSW 1014,2 25 0 0,1
02.07.2020 01:00:00 13,6 13,4 13,2 18,8 21,7 16,3 6 4 12 6 SW 1014,6 19 0 0,0
02.07.2020 00:00:00 14,6 14,3 14,0 19,6 22,2 16,3 5 3 10 6 SW 1014,5 47 0 0,0
01.07.2020 23:00:00 15,1 14,8 14,4 20,4 22,7 16,2 0 0 8 5 N 1014,0 26 0 0,0
01.07.2020 22:00:00 15,8 15,2 15,2 21,6 23,3 16,2 7 4 20 11 WSW 1012,7 4,8 0 2,0
01.07.2020 21:00:00 17,4 15,0 16,3 23,1 23,7 16,2 11 6 30 16 SW 1012,0 1,5 0 1,7
01.07.2020 20:00:00 18,4 16,3 18,1 24,6 24,0 16,2 6 3 10 5 SW 1010,2 75 5 0,0
01.07.2020 19:00:00 22,4 16,2 22,5 26,6 23,9 16,2 4 2 14 8 WSW 1009,6 75 59 0,0
01.07.2020 18:00:00 20,8 16,0 22,6 26,0 24,1 16,2 7 4 22 12 WSW 1010,6 75 34 0,1
01.07.2020 17:00:00 17,7 16,5 17,7 24,4 24,6 16,2 9 5 23 12 SSW 1012,9 38 0 3,9
01.07.2020 16:00:00 18,4 17,4 18,5 27,0 24,7 16,2 8 4 22 12 WSW 1010,5 15 0 4,9
01.07.2020 15:00:00 22,4 17,5 21,0 31,6 24,1 16,2 9 5 28 15 N 1008,5 11 22 1,2
01.07.2020 14:00:00 26,1 15,4 27,8 33,2 23,0 16,2 13 7 30 16 NE 1007,6 67 43 0,0
01.07.2020 13:00:00 26,6 15,4 31,1 31,9 21,8 16,2 17 9 29 16 NE 1007,8 64 60 0,0
01.07.2020 12:00:00 25,6 15,0 28,5 29,0 20,6 16,2 12 6 23 13 NE 1008,6 69 60 0,0
01.07.2020 11:00:00 24,6 14,3 27,0 25,8 19,7 16,2 8 4 14 8 E 1009,5 75 60 0,0
01.07.2020 10:00:00 22,9 14,5 25,3 22,1 19,2 16,2 3 1 7 4 NE 1010,4 34 49 0,0
01.07.2020 09:00:00 21,3 13,9 22,4 19,5 19,0 16,2 2 1 5 3 NE 1011,0 2,9 57 0,0
01.07.2020 08:00:00 16,2 14,1 15,1 16,8 19,1 16,2 2 1 6 4 W 1012,7 57 25 0,0
01.07.2020 07:00:00 13,3 12,5 12,4 16,4 19,5 16,2 3 2 7 4 SSW 1013,7 46 12 0,0
01.07.2020 06:00:00 11,9 11,6 11,3 16,4 19,9 16,2 4 2 6 3 SSW 1014,2 58 0 0,0
01.07.2020 05:00:00 12,2 11,8 11,2 16,9 20,4 16,2 2 1 9 5 WSW 1014,2 49 0 0,0
01.07.2020 04:00:00 12,1 11,7 11,6 17,4 20,8 16,2 4 2 8 4 SSW 1014,1 33 0 0,0
01.07.2020 03:00:00 12,6 12,2 12,1 18,1 21,4 16,2 3 2 9 5 WSW 1014,3 48 0 0,0
01.07.2020 02:00:00 12,9 12,2 12,3 18,8 21,9 16,2 5 3 8 4 SSW 1014,5 45 0 0,0
01.07.2020 01:00:00 13,9 13,1 13,0 19,7 22,5 16,2 4 2 9 5 WSW 1014,3 45 0 0,0
01.07.2020 00:00:00 14,8 13,7 13,7 20,8 23,1 16,2 3 2 8 5 W 1014,1 59 0 0,0
30.06.2020 23:00:00 15,6 14,2 15,1 22,0 23,7 16,2 3 2 8 4 SW 1013,6 68 0 0,0
30.06.2020 22:00:00 17,6 14,7 16,5 23,6 24,2 16,2 3 1 5 3 W 1012,4 72 0 0,0
30.06.2020 21:00:00 20,4 14,4 19,7 25,3 24,5 16,2 1 1 8 5 NW 1011,1 75 0 0,0
30.06.2020 20:00:00 23,1 12,0 24,3 26,8 24,8 16,2 7 4 21 11 NE 1010,3 75 15 0,0
30.06.2020 19:00:00 23,3 12,3 24,3 28,2 24,8 16,2 11 6 23 12 NE 1010,0 75 23 0,0
30.06.2020 18:00:00 23,9 13,0 25,3 30,4 24,5 16,2 10 5 26 14 NE 1009,5 67 54 0,0
30.06.2020 17:00:00 24,5 13,2 27,9 31,2 24,0 16,2 13 7 32 17 NNE 1009,4 72 60 0,0
30.06.2020 16:00:00 24,6 13,6 28,1 30,9 23,3 16,2 14 7 34 19 NE 1009,5 66 59 0,0
30.06.2020 15:00:00 24,1 13,5 28,0 30,1 22,5 16,2 14 8 31 17 NE 1009,7 51 48 0,0
30.06.2020 14:00:00 22,8 13,0 25,3 29,7 21,6 16,2 14 8 29 16 NE 1010,3 69 46 0,0
30.06.2020 13:00:00 22,9 12,9 26,3 28,7 20,5 16,2 14 8 28 15 NE 1010,7 65 60 0,0
30.06.2020 12:00:00 22,4 13,0 25,3 26,5 19,6 16,2 11 6 24 13 NE 1011,4 55 60 0,0
30.06.2020 11:00:00 20,8 11,9 23,9 23,8 18,8 16,2 8 4 17 9 NE 1012,3 1,4 54 0,0
30.06.2020 10:00:00 20,5 11,5 22,0 21,6 18,2 16,2 4 2 9 5 SE 1012,9 72 58 0,0
30.06.2020 09:00:00 18,0 11,2 19,4 18,7 18,0 16,2 3 2 7 4 WSW 1014,0 55 51 0,0
30.06.2020 08:00:00 15,0 11,6 15,0 16,8 18,0 16,2 3 2 8 4 SSW 1015,3 75 10 0,0
30.06.2020 07:00:00 13,9 11,8 13,6 16,3 18,2 16,2 3 2 8 4 SW 1015,8 75 0 0,0
30.06.2020 06:00:00 13,1 11,7 12,9 16,2 18,4 16,2 2 1 8 5 WSW 1016,0 75 0 0,0
30.06.2020 05:00:00 12,6 11,3 12,3 16,4 18,7 16,2 3 2 8 4 SW 1015,8 75 0 0,0
30.06.2020 04:00:00 12,9 11,3 12,9 16,7 18,9 16,1 3 1 6 3 SW 1015,8 75 0 0,0
30.06.2020 03:00:00 13,2 11,7 13,0 16,9 19,2 16,1 3 2 10 5 WSW 1015,8 75 0 0,0
30.06.2020 02:00:00 13,3 11,9 13,2 17,2 19,5 16,1 4 2 7 4 WSW 1015,9 75 0 0,0
30.06.2020 01:00:00 13,4 12,1 13,2 17,4 19,9 16,1 2 1 8 4 WNW 1015,9 75 0 0,0
30.06.2020 00:00:00 13,0 12,0 12,7 17,8 20,4 16,1 4 2 9 5 SSW 1015,9 75 0 0,0
29.06.2020 23:00:00 13,5 12,0 12,6 18,5 20,8 16,1 2 1 10 5 W 1015,6 75 0 0,0
29.06.2020 22:00:00 14,2 11,8 12,6 19,5 21,3 16,1 4 2 7 4 W 1015,1 75 0 0,0
29.06.2020 21:00:00 15,3 12,2 13,7 21,0 21,6 16,1 4 2 8 4 SSW 1014,0 68 0 0,0
29.06.2020 20:00:00 19,1 10,4 20,4 23,0 21,7 16,1 5 3 17 9 NNE 1012,5 75 50 0,0
29.06.2020 19:00:00 21,1 10,7 20,4 23,9 21,6 16,1 9 5 21 11 W 1011,8 75 54 0,0
29.06.2020 18:00:00 19,7 11,5 20,2 23,8 21,5 16,1 9 5 23 13 SW 1012,9 67 27 0,0
29.06.2020 17:00:00 19,3 11,2 20,2 23,7 21,4 16,1 9 5 21 12 SSW 1013,2 66 11 0,0
29.06.2020 16:00:00 19,2 13,2 18,7 24,3 21,2 16,1 8 5 24 13 NNE 1013,1 15 8 0,0
29.06.2020 15:00:00 19,2 13,3 20,4 25,0 20,7 16,1 11 6 24 13 NNE 1013,1 75 17 0,0

tt = temperature
td = dewpoint
tt 5cm = temperature 5cm
tt -5cm = temperature -5cm
tt -20cm = temperature -20cm
tt -100cm = temperature -100cm
ff = wind speed
fx = gusts
dd = wind direction
ppp = reduced air pressure
vv = visibility
sd = sunshine duration
rr = precipitation

Next stations